When you browse on this site, cookies collect data to enhance your experience and personalize the content and advertising you see.
Visit our Privacy Policy to learn more. By continuing to use the site, you agree to this use of cookies and data.
  • In Austria
  • List of Countries
  • For 7 days
  • Water Temperature
  • Satellite Maps
  • Weather Map
  • News
  • Weather Widgets
  • user-avatar
    Login

    Hourly Weather Karachi

    Today, 11 December, Tuesday

    Time Temperature Precipitation Wind Pressure Humidity
    00:00 +24°C° 0 mm 1 mps 757 mmHg 54%
    01:00 +24°C° 0 mm 1 mps 757 mmHg 56%
    02:00 +23°C° 0 mm 1 mps 757 mmHg 57%
    03:00 +23°C° 0 mm 1 mps 757 mmHg 58%
    04:00 +23°C° 0 mm 1 mps 757 mmHg 61%
    05:00 +23°C° 0 mm 1 mps 757 mmHg 58%
    06:00 +24°C° 0 mm 1 mps 758 mmHg 54%
    07:00 +24°C° 0 mm 2 mps 758 mmHg 51%
    08:00 +25°C° 0 mm 2 mps 758 mmHg 44%
    09:00 +27°C° 0 mm 3 mps 759 mmHg 37%
    10:00 +28°C° 0 mm 4 mps 759 mmHg 30%
    11:00 +29°C° 0 mm 3 mps 758 mmHg 28%
    12:00 +29°C° 0 mm 3 mps 758 mmHg 26%
    13:00 +30°C° 0 mm 2 mps 757 mmHg 25%
    14:00 +30°C° 0 mm 2 mps 757 mmHg 25%
    15:00 +29°C° 0 mm 3 mps 757 mmHg 26%
    16:00 +29°C° 0 mm 3 mps 757 mmHg 27%
    17:00 +28°C° 0 mm 3 mps 757 mmHg 29%
    18:00 +27°C° 0 mm 3 mps 758 mmHg 31%
    19:00 +26°C° 0 mm 3 mps 758 mmHg 33%
    20:00 +26°C° 0 mm 3 mps 758 mmHg 33%
    21:00 +25°C° 0 mm 3 mps 759 mmHg 33%
    22:00 +25°C° 0 mm 3 mps 759 mmHg 33%
    23:00 +24°C° 0 mm 3 mps 759 mmHg 33%

    Tomorrow, 12 December, Wednesday

    Time Temperature Precipitation Wind Pressure Humidity
    00:00 +24°C° 0 mm 3 mps 759 mmHg 34%
    01:00 +23°C° 0 mm 4 mps 758 mmHg 34%
    02:00 +22°C° 0 mm 5 mps 759 mmHg 35%
    03:00 +22°C° 0 mm 5 mps 759 mmHg 35%
    04:00 +22°C° 0 mm 6 mps 759 mmHg 36%
    05:00 +21°C° 0 mm 6 mps 759 mmHg 36%
    06:00 +21°C° 0 mm 6 mps 760 mmHg 35%
    07:00 +21°C° 0 mm 7 mps 760 mmHg 35%
    08:00 +23°C° 0 mm 7 mps 761 mmHg 32%
    09:00 +24°C° 0 mm 7 mps 761 mmHg 29%
    10:00 +27°C° 0 mm 7 mps 762 mmHg 26%
    11:00 +27°C° 0 mm 7 mps 761 mmHg 25%
    12:00 +28°C° 0 mm 6 mps 760 mmHg 24%
    13:00 +29°C° 0 mm 5 mps 760 mmHg 23%
    14:00 +28°C° 0 mm 5 mps 760 mmHg 23%
    15:00 +28°C° 0 mm 5 mps 760 mmHg 23%
    16:00 +28°C° 0 mm 4 mps 759 mmHg 24%
    17:00 +27°C° 0 mm 5 mps 760 mmHg 26%
    18:00 +26°C° 0 mm 5 mps 760 mmHg 28%
    19:00 +25°C° 0 mm 5 mps 761 mmHg 29%
    20:00 +23°C° 0 mm 5 mps 761 mmHg 30%
    21:00 +23°C° 0 mm 6 mps 762 mmHg 31%
    22:00 +22°C° 0 mm 6 mps 762 mmHg 32%
    23:00 +22°C° 0 mm 6 mps 762 mmHg 32%

    Day after tomorrow, 13 December, Thursday

    Time Temperature Precipitation Wind Pressure Humidity
    00:00 +22°C° 0 mm 6 mps 762 mmHg 33%
    01:00 +21°C° 0 mm 6 mps 762 mmHg 34%
    02:00 +21°C° 0 mm 6 mps 762 mmHg 34%
    03:00 +20°C° 0 mm 6 mps 762 mmHg 35%
    04:00 +20°C° 0 mm 6 mps 762 mmHg 35%
    05:00 +20°C° 0 mm 6 mps 762 mmHg 35%
    06:00 +20°C° 0 mm 7 mps 763 mmHg 35%
    07:00 +20°C° 0 mm 7 mps 764 mmHg 35%
    08:00 +22°C° 0 mm 7 mps 764 mmHg 31%
    09:00 +23°C° 0 mm 7 mps 764 mmHg 28%
    10:00 +26°C° 0 mm 7 mps 765 mmHg 24%
    11:00 +26°C° 0 mm 7 mps 764 mmHg 22%
    12:00 +27°C° 0 mm 6 mps 763 mmHg 21%
    13:00 +28°C° 0 mm 6 mps 762 mmHg 19%
    14:00 +27°C° 0 mm 6 mps 762 mmHg 19%
    15:00 +27°C° 0 mm 6 mps 762 mmHg 19%
    16:00 +27°C° 0 mm 5 mps 761 mmHg 20%
    17:00 +26°C° 0 mm 5 mps 762 mmHg 21%
    18:00 +25°C° 0 mm 5 mps 763 mmHg 22%
    19:00 +23°C° 0 mm 5 mps 763 mmHg 24%
    20:00 +22°C° 0 mm 5 mps 763 mmHg 24%
    21:00 +22°C° 0 mm 5 mps 763 mmHg 25%
    22:00 +21°C° 0 mm 6 mps 764 mmHg 26%
    23:00 +21°C° 0 mm 6 mps 763 mmHg 26%

    14 December, Friday

    Time Temperature Precipitation Wind Pressure Humidity
    00:00 +20°C° 0 mm 6 mps 763 mmHg 27%
    01:00 +20°C° 0 mm 6 mps 763 mmHg 27%
    02:00 +19°C° 0 mm 6 mps 763 mmHg 28%
    03:00 +19°C° 0 mm 6 mps 763 mmHg 28%
    04:00 +19°C° 0 mm 6 mps 762 mmHg 29%
    05:00 +17°C° 0 mm 6 mps 763 mmHg 29%
    06:00 +17°C° 0 mm 6 mps 764 mmHg 29%
    07:00 +17°C° 0 mm 6 mps 764 mmHg 29%
    08:00 +20°C° 0 mm 6 mps 764 mmHg 25%
    09:00 +22°C° 0 mm 7 mps 765 mmHg 21%
    10:00 +24°C° 0 mm 7 mps 765 mmHg 17%
    11:00 +24°C° 0 mm 7 mps 764 mmHg 16%
    12:00 +26°C° 0 mm 7 mps 763 mmHg 15%
    13:00 +27°C° 0 mm 7 mps 762 mmHg 13%
    14:00 +27°C° 0 mm 7 mps 762 mmHg 13%
    15:00 +26°C° 0 mm 7 mps 762 mmHg 14%
    16:00 +26°C° 0 mm 7 mps 762 mmHg 14%
    17:00 +24°C° 0 mm 7 mps 762 mmHg 15%
    18:00 +23°C° 0 mm 7 mps 763 mmHg 16%
    19:00 +22°C° 0 mm 7 mps 763 mmHg 17%
    20:00 +22°C° 0 mm 7 mps 763 mmHg 17%
    21:00 +21°C° 0 mm 7 mps 763 mmHg 18%
    22:00 +21°C° 0 mm 7 mps 763 mmHg 19%
    23:00 +20°C° 0 mm 8 mps 763 mmHg 19%

    15 December, Saturday

    Time Temperature Precipitation Wind Pressure Humidity
    00:00 +20°C° 0 mm 8 mps 763 mmHg 20%
    01:00 +18°C° 0 mm 8 mps 763 mmHg 20%
    02:00 +18°C° 0 mm 8 mps 763 mmHg 21%
    03:00 +18°C° 0 mm 8 mps 763 mmHg 22%
    04:00 +17°C° 0 mm 8 mps 762 mmHg 22%
    05:00 +17°C° 0 mm 8 mps 763 mmHg 22%
    06:00 +17°C° 0 mm 8 mps 763 mmHg 23%
    07:00 +17°C° 0 mm 8 mps 764 mmHg 23%
    08:00 +19°C° 0 mm 9 mps 764 mmHg 20%
    09:00 +22°C° 0 mm 9 mps 764 mmHg 18%
    10:00 +24°C° 0 mm 10 mps 764 mmHg 15%
    11:00 +24°C° 0 mm 9 mps 764 mmHg 14%
    12:00 +26°C° 0 mm 9 mps 763 mmHg 14%
    13:00 +27°C° 0 mm 9 mps 762 mmHg 13%
    14:00 +26°C° 0 mm 8 mps 762 mmHg 13%
    15:00 +26°C° 0 mm 8 mps 762 mmHg 13%
    16:00 +26°C° 0 mm 8 mps 762 mmHg 13%
    17:00 +24°C° 0 mm 8 mps 762 mmHg 14%
    18:00 +23°C° 0 mm 8 mps 763 mmHg 14%
    19:00 +22°C° 0 mm 8 mps 763 mmHg 15%
    20:00 +21°C° 0 mm 8 mps 763 mmHg 15%
    21:00 +21°C° 0 mm 8 mps 763 mmHg 15%
    22:00 +20°C° 0 mm 8 mps 764 mmHg 16%
    23:00 +20°C° 0 mm 8 mps 763 mmHg 16%

    16 December, Sunday

    Time Temperature Precipitation Wind Pressure Humidity
    00:00 +19°C° 0 mm 9 mps 763 mmHg 16%
    01:00 +18°C° 0 mm 9 mps 763 mmHg 17%
    02:00 +18°C° 0 mm 9 mps 763 mmHg 17%
    03:00 +17°C° 0 mm 8 mps 763 mmHg 18%
    04:00 +17°C° 0 mm 8 mps 763 mmHg 18%
    05:00 +17°C° 0 mm 8 mps 763 mmHg 18%
    06:00 +17°C° 0 mm 8 mps 764 mmHg 18%
    07:00 +17°C° 0 mm 8 mps 764 mmHg 18%
    08:00 +19°C° 0 mm 9 mps 764 mmHg 16%
    09:00 +22°C° 0 mm 9 mps 764 mmHg 13%
    10:00 +23°C° 0 mm 9 mps 765 mmHg 11%
    11:00 +24°C° 0 mm 9 mps 764 mmHg 10%
    12:00 +26°C° 0 mm 9 mps 763 mmHg 9%
    13:00 +27°C° 0 mm 8 mps 762 mmHg 9%
    14:00 +26°C° 0 mm 8 mps 762 mmHg 9%
    15:00 +26°C° 0 mm 8 mps 762 mmHg 9%
    16:00 +26°C° 0 mm 7 mps 761 mmHg 9%
    17:00 +23°C° 0 mm 7 mps 762 mmHg 10%
    18:00 +22°C° 0 mm 6 mps 762 mmHg 11%
    19:00 +21°C° 0 mm 6 mps 763 mmHg 12%
    20:00 +21°C° 0 mm 6 mps 763 mmHg 13%
    21:00 +20°C° 0 mm 6 mps 763 mmHg 13%
    22:00 +20°C° 0 mm 6 mps 763 mmHg 14%
    23:00 +19°C° 0 mm 6 mps 763 mmHg 14%
    Show more